Date String (YYYY-MM-DD hh:mm:ss) UTC,Instrument flags,Ambient pressure (hPa),Sample flow (lpm),Bypass flow (lpm),Sample temperature (°C),Ambient temperature (°C),ASC tube jacket temperature (°C),LED temperature (°C),Box temperature (°C),Sample RH (%),Span deviation,Mass concentration (μg/m³),Mass concentration (μg/m³),Mass concentration (μg/m³)
DateTimeUTC,F1_M11,P_M11,Q1_M11,Q2_M11,T1_M11,T2_M11,T3_M11,T4_M11,T5_M11,U1_M11,ZSPAN_M11,X0_M11,X2_M11,X1_M11
2022-05-20 20:00:00,,0821.1,5.00,0.00,24.0,22.8,00.0,33.0,25.9,19.2,0000.0,0002.46,0001.69,0001.51
2022-05-20 20:01:00,,0821.2,5.00,0.00,24.0,22.8,00.0,33.0,25.9,19.2,0000.0,0002.41,0001.66,0001.46
2022-05-20 20:02:00,,0821.1,5.00,0.00,24.0,22.8,00.0,33.0,25.8,19.2,0000.0,0002.41,0001.63,0001.41
2022-05-20 20:03:00,,0821.2,4.99,0.00,24.0,22.8,00.0,33.0,25.8,19.2,0000.0,0002.49,0001.65,0001.38
2022-05-20 20:04:00,,0821.3,5.00,0.00,24.0,22.8,00.0,33.0,25.8,19.2,0000.0,0002.44,0001.62,0001.35
2022-05-20 20:05:00,,0821.3,5.00,0.00,24.0,22.8,00.0,33.0,25.7,19.3,0000.0,0002.42,0001.60,0001.32
2022-05-20 20:06:00,,0821.3,5.00,0.00,24.0,22.8,00.0,33.0,25.8,19.3,0000.0,0002.36,0001.56,0001.28
2022-05-20 20:07:00,,0821.2,5.00,0.00,24.0,22.8,00.0,33.0,25.8,19.3,0000.0,0002.11,0001.49,0001.23
2022-05-20 20:08:00,,0821.2,4.99,0.00,23.9,22.8,00.0,33.0,25.7,19.3,0000.0,0001.96,0001.42,0001.18
2022-05-20 20:09:00,,0821.2,5.01,0.00,23.9,22.8,00.0,33.0,25.7,19.3,0000.0,0001.95,0001.38,0001.13
2022-05-20 20:10:00,,0821.4,5.00,0.00,23.9,22.8,00.0,32.9,25.7,19.3,0000.0,0001.85,0001.31,0001.08
2022-05-20 20:11:00,,0821.4,4.99,0.00,23.9,22.8,00.0,32.9,25.7,19.3,0000.0,0001.79,0001.27,0001.04
2022-05-20 20:12:00,,0821.4,5.01,0.00,23.9,22.8,00.0,32.9,25.7,19.3,0000.0,0001.76,0001.24,0001.02
2022-05-20 20:13:00,,0821.5,4.99,0.00,23.9,22.8,00.0,32.9,25.7,19.3,0000.0,0001.77,0001.23,0001.00
2022-05-20 20:14:00,,0821.6,4.99,0.00,23.9,22.8,00.0,32.9,25.7,19.3,0000.0,0001.67,0001.18,0000.98
2022-05-20 20:15:00,,0821.6,5.01,0.00,23.9,22.8,00.0,32.9,25.7,19.3,0000.0,0001.61,0001.15,0000.97
2022-05-20 20:16:00,,0821.7,4.99,0.00,23.9,22.8,00.0,32.9,25.7,19.3,0000.0,0001.52,0001.11,0000.96
2022-05-20 20:17:00,,0821.7,5.00,0.00,23.9,22.8,00.0,32.9,25.7,19.3,0000.0,0001.51,0001.10,0000.96
2022-05-20 20:18:00,,0821.6,5.00,0.00,23.9,22.8,00.0,32.9,25.7,19.3,0000.0,0001.55,0001.11,0000.97
2022-05-20 20:19:00,,0821.7,5.01,0.00,23.9,22.8,00.0,32.9,25.7,19.3,0000.0,0001.96,0001.12,0000.98
2022-05-20 20:20:00,,0821.8,4.99,0.00,23.9,22.8,00.0,32.9,25.7,19.3,0000.0,0002.42,0001.13,0000.99
2022-05-20 20:21:00,,0821.8,5.00,0.00,23.9,22.8,00.0,32.9,25.7,19.3,0000.0,0002.77,0001.16,0001.01
2022-05-20 20:22:00,,0821.8,5.00,0.00,23.9,22.8,00.0,32.9,25.7,19.3,0000.0,0003.74,0001.22,0001.04
2022-05-20 20:23:00,,0821.7,5.00,0.00,23.9,22.8,00.0,32.9,25.7,19.3,0000.0,0003.71,0001.22,0001.06
2022-05-20 20:24:00,,0821.8,5.01,0.00,23.9,22.8,00.0,32.9,25.7,19.3,0000.0,0003.66,0001.21,0001.08
2022-05-20 20:25:00,,0821.8,5.00,0.00,23.9,22.8,00.0,32.9,25.7,19.3,0000.0,0003.64,0001.20,0001.08
2022-05-20 20:26:00,,0821.8,4.99,0.00,23.9,22.8,00.0,32.9,25.7,19.4,0000.0,0003.64,0001.22,0001.10
2022-05-20 20:27:00,,0821.9,5.01,0.00,23.9,22.8,00.0,32.9,25.7,19.4,0000.0,0003.65,0001.23,0001.10
2022-05-20 20:28:00,,0822.0,5.00,0.00,23.9,22.8,00.0,32.9,25.7,19.4,0000.0,0003.67,0001.24,0001.12
2022-05-20 20:29:00,,0821.8,4.99,0.00,23.9,22.8,00.0,32.9,25.7,19.4,0000.0,0003.63,0001.24,0001.13
2022-05-20 20:30:00,,0821.8,5.01,0.00,23.9,22.8,00.0,32.9,25.7,19.4,0000.0,0003.97,0001.26,0001.14
2022-05-20 20:31:00,,0821.8,4.99,0.00,23.9,22.8,00.0,32.8,25.7,19.4,0000.0,0003.64,0001.25,0001.13
2022-05-20 20:32:00,,0821.8,5.00,0.00,23.9,22.7,00.0,32.8,25.7,19.4,0000.0,0003.52,0001.25,0001.13
2022-05-20 20:33:00,,0822.0,5.00,0.00,23.9,22.7,00.0,32.8,25.7,19.4,0000.0,0002.49,0001.30,0001.20
2022-05-20 20:34:00,,0822.1,5.01,0.00,23.9,22.7,00.0,32.8,25.7,19.4,0000.0,0002.55,0001.34,0001.22
2022-05-20 20:35:00,,0822.0,5.00,0.00,23.8,22.7,00.0,32.8,25.6,19.4,0000.0,0002.54,0001.33,0001.21
2022-05-20 20:36:00,,0821.9,5.01,0.00,23.8,22.7,00.0,32.8,25.6,19.5,0000.0,0002.54,0001.34,0001.21
2022-05-20 20:37:00,,0821.8,5.00,0.00,23.8,22.6,00.0,32.8,25.6,19.5,0000.0,0002.56,0001.33,0001.20
2022-05-20 20:38:00,,0821.8,5.00,0.00,23.8,22.6,00.0,32.8,25.6,19.5,0000.0,0002.56,0001.31,0001.18
2022-05-20 20:39:00,,0821.7,5.00,0.00,23.8,22.6,00.0,32.8,25.6,19.5,0000.0,0002.53,0001.29,0001.15
2022-05-20 20:40:00,,0821.8,4.99,0.00,23.8,22.6,00.0,32.8,25.6,19.5,0000.0,0002.51,0001.26,0001.13
2022-05-20 20:41:00,,0821.8,5.01,0.00,23.8,22.7,00.0,32.8,25.6,19.5,0000.0,0001.87,0001.23,0001.11
2022-05-20 20:42:00,,0821.8,4.99,0.00,23.8,22.7,00.0,32.8,25.6,19.5,0000.0,0001.50,0001.19,0001.09
2022-05-20 20:43:00,,0821.8,5.01,0.00,23.8,22.7,00.0,32.8,25.6,19.5,0000.0,0001.50,0001.19,0001.08
2022-05-20 20:44:00,,0821.8,5.00,0.00,23.8,22.7,00.0,32.8,25.6,19.5,0000.0,0001.40,0001.10,0001.01
2022-05-20 20:45:00,,0822.0,4.99,0.00,23.8,22.7,00.0,32.8,25.6,19.5,0000.0,0001.28,0001.01,0000.93
2022-05-20 20:46:00,,0822.0,5.01,0.00,23.8,22.7,00.0,32.8,25.6,19.6,0000.0,0001.28,0000.99,0000.91
2022-05-20 20:47:00,,0822.0,5.00,0.00,23.8,22.7,00.0,32.8,25.6,19.6,0000.0,0001.30,0000.99,0000.90
2022-05-20 20:48:00,,0821.9,5.00,0.00,23.8,22.7,00.0,32.8,25.6,19.9,0000.0,0001.28,0000.98,0000.90
2022-05-20 20:49:00,,0821.9,5.00,0.00,23.8,22.7,00.0,32.8,25.7,21.9,0000.0,0001.25,0000.98,0000.90
2022-05-20 20:50:00,,0821.8,4.99,0.00,23.8,22.7,00.0,32.8,25.6,22.2,0000.0,0001.26,0000.97,0000.89
2022-05-20 20:51:00,,0822.0,5.01,0.00,23.8,22.7,00.0,32.8,25.7,20.5,0000.0,0001.23,0000.96,0000.88
2022-05-20 20:52:00,,0822.0,4.99,0.00,23.8,22.8,00.0,32.8,25.7,20.0,0000.0,0001.20,0000.93,0000.86
2022-05-20 20:53:00,,0822.1,5.00,0.00,23.8,22.8,00.0,32.8,25.7,19.8,0000.0,0001.21,0000.93,0000.85
2022-05-20 20:54:00,,0822.1,4.99,0.00,23.8,22.8,00.0,32.8,25.7,19.7,0000.0,0001.16,0000.91,0000.84
2022-05-20 20:55:00,,0822.2,5.00,0.00,23.8,22.8,00.0,32.8,25.7,19.7,0000.0,0001.11,0000.88,0000.83
2022-05-20 20:56:00,,0822.2,5.01,0.00,23.8,22.8,00.0,32.8,25.7,19.6,0000.0,0001.10,0000.88,0000.83
2022-05-20 20:57:00,,0822.3,5.00,0.00,23.8,22.8,00.0,32.8,25.7,19.6,0000.0,0001.06,0000.87,0000.83
2022-05-20 20:58:00,,0822.4,5.00,0.00,23.8,22.7,00.0,32.8,25.7,19.5,0000.0,0001.00,0000.83,0000.80
2022-05-20 20:59:00,,0822.4,5.00,0.00,23.8,22.7,00.0,32.8,25.7,19.5,0000.0,0000.98,0000.82,0000.79
